sat.trackr.live / text

‹ back to catalog

STARLINK-30765

NORAD 58119 · 2023-162B

PAYLOAD ACTIVE UNKNOWN

§ Identity

Operator
Country
US
Launch date
2023-10-22
Launch site
AFETR
Launch vehicle
Mass (kg)
RCS (m²)

Purposes: comms

External: N2YO · Heavens-Above · Gunter

§ Orbital elements

Epoch: 2026-05-25T03:45:39.871008Z

Period
94.27 min
Inclination
43.0071°
Eccentricity
0.0001529
Mean motion
15.27575010 rev/d
Perigee alt
482.0 km
Apogee alt
484.1 km
Semi-major
6,861.2 km
B*
7.0562e-5
RAAN
60.4757°
Arg perigee
245.2866°
Mean anomaly
114.7827°
Rev number
14,400

§ Raw data

STARLINK-307651 58119U 23162B   26145.15671147  .00001680  00000+0  70562-4 0  99962 58119  43.0071  60.4757 0001529 245.2866 114.7827 15.27575010144002

JSON: /api/v1/satellites/58119 · /tle

For live sub-satellite position, see the globe view (requires WebGL).

§ Visibility from observer

Set your observer location to see the next 7 days of passes ≥ 10°. The values pass through the URL so the page stays shareable.

No JS? Fill the form by hand. The geolocation button needs JavaScript.